Location: Cointrin
(46.2167°N, 6.1167°E)
Time: 03:57:49
(UTC+00:00)

Cosmos 1814 Rocket - Pass Details

Date: 08 February 2023
Orbit: 744 x 786 km, 74.1° (Epoch: 26 March)

Event Time Altitude Azimuth Distance (km) Brightness Sun altitude
Rises 18:32:30 0° 336° (NNW) 3,288 7.6 -18.0°
Reaches altitude 10° 18:34:54 10° 335° (NNW) 2,357 6.8 -18.5°
Maximum altitude 18:40:15 72° 252° (WSW) 829 4.3 -19.4°
Drops below altitude 10° 18:45:33 10° 168° (SSE) 2,336 6.4 -20.3°
Sets 18:47:55 0° 167° (SSE) 3,256 7.1 -20.7°
